| time (UTC) | temp C | wind direction | speed KPH | gust KPH | rain 1hr cm | rain 24hr cm | rain mn cm | humidity % | barometer mb |
| 20260904141539 | 20 | 65 | 4.8 | 20.9 | 0.20 | 1.04 | 0.28 | 87 | 1017.0 |
| 20260904140052 | 21 | 54 | 9.7 | 16.1 | 0.03 | 0.86 | 0.10 | 87 | 1017.1 |
| 20260904134547 | 21 | 319 | 4.8 | 16.1 | 0.00 | 0.84 | 0.08 | 86 | 1018.3 |
| 20260904133044 | 21 | 34 | 8.0 | 20.9 | 0.00 | 0.84 | 0.08 | 86 | 1017.6 |
| 20260904131543 | 21 | 267 | 6.4 | 32.2 | 0.00 | 0.84 | 0.08 | 86 | 1016.3 |
| 20260904130057 | 20 | 0 | 0.0 | 11.3 | 0.00 | 0.84 | 0.08 | 87 | 1015.6 |
| 20260904124553 | 20 | 77 | 6.4 | 14.5 | 0.00 | 0.86 | 0.08 | 87 | 1015.9 |
| 20260904123044 | 20 | 122 | 4.8 | 25.7 | 0.00 | 0.86 | 0.08 | 87 | 1015.7 |
| 20260904121542 | 20 | 72 | 16.1 | 29.0 | 0.00 | 0.86 | 0.08 | 87 | 1015.6 |
| 20260904120105 | 20 | 347 | 6.4 | 20.9 | 0.00 | 0.86 | 0.08 | 85 | 1015.5 |
| 20260904114544 | 20 | 42 | 3.2 | 8.0 | 0.00 | 0.86 | 0.08 | 84 | 1015.2 |
| 20260904113044 | 20 | 53 | 1.6 | 8.0 | 0.00 | 0.86 | 0.08 | 84 | 1014.6 |
| 20260904111542 | 20 | 0 | 0.0 | 3.2 | 0.00 | 0.86 | 0.08 | 85 | 1014.2 |
| 20260904110048 | 20 | 0 | 0.0 | 3.2 | 0.00 | 0.86 | 0.08 | 85 | 1014.1 |
| 20260904104543 | 20 | 0 | 1.6 | 8.0 | 0.00 | 0.86 | 0.08 | 86 | 1014.0 |
| 20260904103043 | 20 | 70 | 3.2 | 8.0 | 0.00 | 0.86 | 0.08 | 86 | 1013.8 |
| 20260904101544 | 20 | 55 | 6.4 | 11.3 | 0.00 | 0.86 | 0.08 | 87 | 1014.2 |
| 20260904100049 | 20 | 36 | 8.0 | 19.3 | 0.03 | 0.86 | 0.08 | 87 | 1014.3 |
| 20260904094543 | 21 | 25 | 8.0 | 17.7 | 0.05 | 0.86 | 0.08 | 86 | 1014.5 |
| 20260904093042 | 21 | 261 | 8.0 | 20.9 | 0.05 | 0.86 | 0.08 | 85 | 1014.5 |
| 20260904091542 | 22 | 23 | 6.4 | 12.9 | 0.05 | 0.86 | 0.08 | 83 | 1014.2 |
| 20260904090050 | 22 | 85 | 0.0 | 3.2 | 0.03 | 0.84 | 0.05 | 84 | 1013.3 |
| 20260904084543 | 22 | 0 | 0.0 | 3.2 | 0.03 | 0.81 | 0.03 | 84 | 1013.4 |
| 20260904083044 | 22 | 0 | 0.0 | 0.0 | 0.03 | 0.81 | 0.03 | 84 | 1012.9 |
| 20260904081554 | 22 | 0 | 0.0 | 0.0 | 0.03 | 0.81 | 0.03 | 84 | 1012.8 |
| 20260904080047 | 22 | 0 | 0.0 | 0.0 | 0.03 | 0.81 | 0.03 | 84 | 1013.2 |
| 20260904074541 | 22 | 0 | 0.0 | 0.0 | 0.00 | 0.89 | 0.00 | 85 | 1013.4 |
| 20260904073043 | 21 | 0 | 0.0 | 0.0 | 0.00 | 0.89 | 0.00 | 85 | 1013.5 |
| 20260904071543 | 21 | 0 | 0.0 | 1.6 | 0.00 | 0.89 | 0.00 | 85 | 1013.7 |
| 20260904070046 | 21 | 0 | 0.0 | 1.6 | 0.00 | 0.89 | 0.00 | 85 | 1014.1 |
| 20260904064543 | 22 | 60 | 4.8 | 11.3 | 0.00 | 0.89 | 0.00 | 84 | 1014.4 |
| 20260904063043 | 22 | 283 | 1.6 | 8.0 | 0.00 | 0.89 | 0.00 | 85 | 1013.8 |
| 20260904061552 | 21 | 0 | 1.6 | 8.0 | 0.00 | 0.89 | 0.00 | 85 | 1014.1 |
| 20260904060044 | 21 | 75 | 0.0 | 6.4 | 0.00 | 0.89 | 0.00 | 85 | 1014.1 |
| 20260904054544 | 21 | 73 | 1.6 | 4.8 | 0.00 | 0.89 | 0.00 | 86 | 1013.9 |
| 20260904053044 | 22 | 65 | 1.6 | 3.2 | 0.00 | 0.89 | 0.00 | 86 | 1014.6 |
| 20260904051542 | 22 | 122 | 0.0 | 3.2 | 0.00 | 0.89 | 0.00 | 86 | 1014.3 |
| 20260904050043 | 22 | 0 | 0.0 | 1.6 | 0.00 | 0.89 | 0.00 | 85 | 1014.4 |
| 20260904044555 | 22 | 0 | 0.0 | 6.4 | 0.00 | 0.89 | 0.89 | 85 | 1014.4 |
| 20260904043059 | 22 | 122 | 0.0 | 3.2 | 0.00 | 0.89 | 0.89 | 85 | 1014.9 |
| 20260904041545 | 22 | 0 | 0.0 | 1.6 | 0.00 | 0.89 | 0.89 | 85 | 1014.4 |
| 20260904040042 | 21 | 0 | 0.0 | 0.0 | 0.00 | 0.89 | 0.89 | 85 | 1014.8 |
| 20260904034549 | 22 | 122 | 0.0 | 1.6 | 0.00 | 0.89 | 0.89 | 86 | 1014.6 |
| 20260904033047 | 22 | 0 | 0.0 | 1.6 | 0.00 | 0.89 | 0.89 | 86 | 1015.0 |
| 20260904031544 | 22 | 0 | 0.0 | 1.6 | 0.00 | 0.89 | 0.89 | 86 | 1015.0 |
| 20260904030043 | 22 | 0 | 0.0 | 1.6 | 0.00 | 0.89 | 0.89 | 87 | 1015.0 |
| 20260904024550 | 22 | 0 | 0.0 | 3.2 | 0.00 | 0.89 | 0.89 | 87 | 1014.7 |
| 20260904023046 | 22 | 0 | 0.0 | 1.6 | 0.00 | 0.89 | 0.89 | 87 | 1014.9 |
| 20260904021544 | 22 | 124 | 0.0 | 3.2 | 0.00 | 0.89 | 0.89 | 87 | 1014.8 |
| 20260904020044 | 22 | 0 | 0.0 | 3.2 | 0.00 | 0.89 | 0.89 | 87 | 1014.7 |
| 20260904014553 | 22 | 97 | 0.0 | 1.6 | 0.00 | 0.89 | 0.89 | 87 | 1014.5 |
| 20260904013046 | 22 | 101 | 0.0 | 1.6 | 0.00 | 0.89 | 0.89 | 87 | 1014.5 |
| 20260904011550 | 22 | 101 | 0.0 | 1.6 | 0.00 | 0.89 | 0.89 | 87 | 1014.3 |
| 20260904010046 | 22 | 0 | 0.0 | 1.6 | 0.00 | 0.89 | 0.89 | 86 | 1014.0 |
| 20260904004546 | 22 | 0 | 0.0 | 0.0 | 0.00 | 0.89 | 0.89 | 86 | 1013.8 |
| 20260904003046 | 23 | 0 | 0.0 | 1.6 | 0.00 | 0.89 | 0.89 | 84 | 1013.7 |
| 20260904001546 | 23 | 0 | 0.0 | 3.2 | 0.00 | 0.89 | 0.89 | 83 | 1013.8 |
| 20260904000049 | 23 | 71 | 3.2 | 8.0 | 0.00 | 0.89 | 0.89 | 83 | 1013.7 |
| 20260903234544 | 23 | 101 | 1.6 | 8.0 | 0.00 | 0.89 | 0.89 | 81 | 1013.7 |
| 20260903233046 | 23 | 69 | 3.2 | 9.7 | 0.00 | 0.89 | 0.89 | 80 | 1013.9 |
| 20260903231548 | 23 | 133 | 3.2 | 11.3 | 0.00 | 0.89 | 0.89 | 80 | 1013.6 |
| 20260903230049 | 24 | 65 | 3.2 | 14.5 | 0.00 | 0.89 | 0.89 | 80 | 1013.8 |
| 20260903224543 | 24 | 200 | 3.2 | 11.3 | 0.00 | 0.89 | 0.89 | 81 | 1013.9 |
| 20260903223047 | 24 | 161 | 3.2 | 9.7 | 0.00 | 0.89 | 0.89 | 80 | 1013.6 |
| 20260903221544 | 24 | 117 | 3.2 | 8.0 | 0.00 | 0.89 | 0.89 | 80 | 1013.8 |
| 20260903220047 | 24 | 94 | 1.6 | 8.0 | 0.00 | 0.89 | 0.89 | 80 | 1013.8 |
| 20260903214550 | 24 | 105 | 4.8 | 9.7 | 0.00 | 0.89 | 0.89 | 79 | 1013.8 |
| 20260903213046 | 24 | 68 | 6.4 | 14.5 | 0.00 | 0.89 | 0.89 | 77 | 1013.8 |
| 20260903211543 | 24 | 63 | 4.8 | 12.9 | 0.00 | 0.89 | 0.89 | 78 | 1013.7 |
| 20260903210045 | 24 | 73 | 4.8 | 8.0 | 0.00 | 0.89 | 0.89 | 83 | 1013.8 |
| 20260903204550 | 23 | 80 | 3.2 | 11.3 | 0.00 | 0.89 | 0.89 | 85 | 1013.9 |
| 20260903203045 | 24 | 68 | 6.4 | 16.1 | 0.00 | 0.89 | 0.89 | 83 | 1014.0 |
| 20260903201555 | 25 | 0 | 0.0 | 0.0 | 0.00 | 0.89 | 0.89 | 85 | 1013.9 |
| 20260903200043 | 26 | 0 | 0.0 | 1.6 | 0.00 | 0.89 | 0.89 | 85 | 1013.6 |
| 20260903194542 | 25 | 0 | 0.0 | 0.0 | 0.00 | 0.89 | 0.89 | 86 | 1013.4 |
| 20260903193046 | 25 | 0 | 0.0 | 0.0 | 0.00 | 0.89 | 0.89 | 85 | 1013.7 |
| 20260903191551 | 25 | 0 | 0.0 | 1.6 | 0.00 | 0.89 | 0.89 | 85 | 1014.0 |
| 20260903190044 | 25 | 0 | 0.0 | 3.2 | 0.00 | 0.89 | 0.89 | 85 | 1014.1 |
| 20260903184556 | 24 | 0 | 0.0 | 3.2 | 0.00 | 0.89 | 0.89 | 85 | 1013.8 |
| 20260903183045 | 23 | 0 | 0.0 | 1.6 | 0.20 | 0.89 | 0.89 | 83 | 1013.8 |
| 20260903181549 | 22 | 296 | 1.6 | 4.8 | 0.20 | 0.89 | 0.89 | 84 | 1014.7 |
| 20260903180051 | 22 | 34 | 3.2 | 6.4 | 0.41 | 0.89 | 0.89 | 83 | 1014.4 |
| 20260903174544 | 22 | 153 | 1.6 | 9.7 | 0.41 | 0.89 | 0.89 | 84 | 1013.7 |
| 20260903173050 | 22 | 0 | 0.0 | 3.2 | 0.23 | 0.69 | 0.69 | 84 | 1013.8 |
| 20260903171548 | 21 | 127 | 3.2 | 6.4 | 0.33 | 0.69 | 0.69 | 85 | 1014.3 |
| 20260903170045 | 21 | 214 | 1.6 | 4.8 | 0.25 | 0.48 | 0.48 | 85 | 1015.7 |
| 20260903164555 | 21 | 212 | 1.6 | 6.4 | 0.33 | 0.48 | 0.48 | 86 | 1016.3 |
| 20260903163049 | 21 | 199 | 3.2 | 4.8 | 0.33 | 0.46 | 0.46 | 86 | 1016.9 |
| 20260903161551 | 21 | 247 | 6.4 | 16.1 | 0.23 | 0.36 | 0.36 | 87 | 1016.9 |
| 20260903160044 | 21 | 267 | 8.0 | 20.9 | 0.10 | 0.23 | 0.23 | 87 | 1016.4 |
| 20260903154550 | 21 | 269 | 6.4 | 17.7 | 0.03 | 0.15 | 0.15 | 85 | 1016.0 |
| 20260903153043 | 22 | 317 | 6.4 | 14.5 | 0.00 | 0.13 | 0.13 | 83 | 1015.4 |
| 20260903151543 | 22 | 300 | 6.4 | 16.1 | 0.00 | 0.13 | 0.13 | 79 | 1015.5 |
| 20260903150049 | 22 | 304 | 4.8 | 12.9 | 0.00 | 0.13 | 0.13 | 77 | 1015.3 |
| 20260903144545 | 23 | 48 | 8.0 | 17.7 | 0.00 | 0.13 | 0.13 | 74 | 1014.8 |
| 20260903143104 | 23 | 318 | 9.7 | 25.7 | 0.00 | 0.13 | 0.13 | 71 | 1014.7 |